sat.trackr.live / text

‹ back to catalog

STARLINK-5521

NORAD 56471 · 2023-064Z

PAYLOAD ACTIVE UNKNOWN

§ Identity

Operator
Country
US
Launch date
2023-05-10
Launch site
AFWTR
Launch vehicle
Mass (kg)
RCS (m²)

Purposes: comms

External: N2YO · Heavens-Above · Gunter

§ Orbital elements

Epoch: 2026-09-20T22:00:03.000096Z

Period
95.47 min
Inclination
70.0004°
Eccentricity
0.0002478
Mean motion
15.08333839 rev/d
Perigee alt
539.6 km
Apogee alt
543.0 km
Semi-major
6,919.4 km
B*
-4.8811e-4
RAAN
352.1328°
Arg perigee
313.3631°
Mean anomaly
84.5478°
Rev number
576

§ Raw data

STARLINK-55211 56471U 23064Z   26263.91670139 -.00007688  00000+0 -48811-3 0  99982 56471  70.0004 352.1328 0002478 313.3631  84.5478 15.08333839  5768

JSON: /api/v1/satellites/56471 · /tle

For live sub-satellite position, see the globe view (requires WebGL).

§ Visibility from observer

Set your observer location to see the next 7 days of passes ≥ 10°. The values pass through the URL so the page stays shareable.

No JS? Fill the form by hand. The geolocation button needs JavaScript.